TimeCST,TemperatureF,Dew PointF,Humidity,Sea Level PressureIn,VisibilityMPH,Wind Direction,Wind SpeedMPH,Gust SpeedMPH,PrecipitationIn,Events,Conditions,WindDirDegrees,DateUTC
12:53 AM,55.9,54.0,93,30.19,10.0,Calm,Calm,-,N/A,,Partly Cloudy,0,2012-11-21 06:53:00
1:53 AM,55.9,55.0,97,30.20,9.0,Calm,Calm,-,N/A,,Partly Cloudy,0,2012-11-21 07:53:00
2:53 AM,55.9,55.9,100,30.20,8.0,Calm,Calm,-,N/A,Fog,Patches of Fog,0,2012-11-21 08:53:00
3:53 AM,55.0,55.0,100,30.20,8.0,Calm,Calm,-,N/A,Fog,Patches of Fog,0,2012-11-21 09:53:00
4:53 AM,55.0,54.0,96,30.21,8.0,Calm,Calm,-,N/A,Fog,Patches of Fog,0,2012-11-21 10:53:00
5:53 AM,55.0,55.0,100,30.21,8.0,Calm,Calm,-,N/A,Fog,Patches of Fog,0,2012-11-21 11:53:00
6:53 AM,55.9,55.0,97,30.23,5.0,Calm,Calm,-,N/A,Fog,Patches of Fog,0,2012-11-21 12:53:00
7:53 AM,57.9,57.0,97,30.25,5.0,Calm,Calm,-,N/A,Fog,Patches of Fog,0,2012-11-21 13:53:00
8:53 AM,64.9,57.9,78,30.27,10.0,NW,3.5,-,N/A,,Scattered Clouds,320,2012-11-21 14:53:00
9:53 AM,72.0,59.0,64,30.28,10.0,North,3.5,-,N/A,,Partly Cloudy,350,2012-11-21 15:53:00
10:53 AM,78.1,59.0,52,30.26,10.0,Variable,6.9,-,N/A,,Partly Cloudy,0,2012-11-21 16:53:00
11:53 AM,78.1,55.0,45,30.23,10.0,Calm,Calm,-,N/A,,Scattered Clouds,0,2012-11-21 17:53:00
12:53 PM,81.0,53.1,38,30.20,10.0,Variable,4.6,-,N/A,,Mostly Cloudy,0,2012-11-21 18:53:00
1:53 PM,82.9,46.9,28,30.17,10.0,East,6.9,-,N/A,,Mostly Cloudy,100,2012-11-21 19:53:00
2:53 PM,80.1,46.9,31,30.16,10.0,Calm,Calm,-,N/A,,Mostly Cloudy,0,2012-11-21 20:53:00
3:53 PM,80.1,48.0,32,30.15,10.0,Variable,4.6,-,N/A,,Mostly Cloudy,0,2012-11-21 21:53:00
4:53 PM,73.0,52.0,48,30.15,10.0,Calm,Calm,-,N/A,,Mostly Cloudy,0,2012-11-21 22:53:00
5:53 PM,68.0,51.1,55,30.15,10.0,Calm,Calm,-,N/A,,Mostly Cloudy,0,2012-11-21 23:53:00
6:53 PM,66.0,50.0,56,30.17,10.0,NE,3.5,-,N/A,,Scattered Clouds,50,2012-11-22 00:53:00
7:53 PM,62.1,50.0,65,30.18,10.0,South,3.5,-,N/A,,Mostly Cloudy,180,2012-11-22 01:53:00
8:53 PM,62.1,51.1,67,30.20,10.0,Calm,Calm,-,N/A,,Mostly Cloudy,0,2012-11-22 02:53:00
9:53 PM,57.0,52.0,83,30.20,10.0,Calm,Calm,-,N/A,,Scattered Clouds,0,2012-11-22 03:53:00
10:53 PM,57.0,52.0,83,30.19,10.0,Calm,Calm,-,N/A,,Scattered Clouds,0,2012-11-22 04:53:00
11:53 PM,57.0,53.1,87,30.18,10.0,Calm,Calm,-,N/A,,Partly Cloudy,0,2012-11-22 05:53:00